Wind_Speed
11 14 14 16 17 18 17 6 3 2 7 3 7 4 2 0 4 5 4 2 5 7 8 4 5 5 6 9 9 5 6 2 2 9 1 2 1 2 4 4 6 2 3 4
10 13 11 13 16 17 19 9 7 5 3 3 4 4 4 5 3 5 3 3 5 5 3 3 4 4 6 17 9 4 3 3 2 2 2 3 1 2 3 3 2 5 2 4
10 12 9 12 14 14 15 6 3 7 7 8 5 7 9 8 8 4 10 5 6 6 8 7 4 6 5 11 9 12 9 4 6 7 8 3 4 4 4 4 1 3 4 6
11 8 12 13 14 13 9 3 2 0 3 5 11 9 10 13 12 7 9 4 8 7 8 11 13 11 12 12 12 14 4 4 6 11 11 1 2 6 5 5 5 4 5 2
6 10 12 13 13 10 7 6 4 2 9 17 13 10 9 14 12 9 11 11 12 9 4 7 10 13 4 8 7 6 6 5 7 7 11 9 6 9 8 5 2 4 3 5
9 12 12 14 14 11 6 7 8 5 7 10 9 9 12 11 8 12 13 15 10 10 11 12 12 15 15 8 4 3 4 3 3 8 9 8 6 6 7 3 3 4 1 4
13 13 17 17 13 14 12 11 10 5 7 9 10 15 18 11 14 14 21 19 6 5 13 10 10 11 12 13 13 11 4 2 5 3 3 7 2 6 5 7 4 3 4 5
15 17 14 12 11 11 13 13 14 8 4 13 14 15 6 15 18 12 9 8 7 9 3 2 6 4 4 8 13 7 7 3 3 5 5 4 2 3 2 3 1 2 1 8
12 12 14 14 13 11 13 16 16 14 8 4 9 11 15 6 3 5 8 2 4 2 2 4 4 5 4 4 2 2 3 2 4 3 4 2 4 5 4 3 2 5 8 9
12 15 13 11 12 11 14 15 12 14 9 9 7 3 3 4 5 3 8 0 2 4 2 5 5 6 2 5 4 4 3 2 6 7 4 3 5 6 1 1 2 7 9 9
14 11 11 12 14 14 14 15 14 11 8 9 5 4 2 5 6 2 7 4 6 4 2 2 3 2 2 4 4 4 4 2 3 4 1 2 13 5 2 2 6 7 9 10
10 10 11 14 13 14 11 10 10 7 8 3 1 3 4 3 3 5 5 7 6 3 2 1 2 1 3 2 2 5 2 2 2 3 2 4 9 11 6 5 7 9 9 10
10 10 13 14 11 8 7 9 12 9 6 3 5 3 6 7 8 5 4 4 2 3 4 3 2 6 4 4 3 3 2 6 2 3 4 7 8 8 7 8 7 8 8 10
10 11 13 11 10 6 7 6 5 3 6 1 5 4 9 15 9 5 11 14 5 8 9 7 4 3 10 3 3 4 4 7 5 2 5 0 7 6 7 6 7 8 7 9
9 12 13 7 7 6 3 2 9 5 2 4 7 4 13 16 14 5 6 9 10 8 6 6 3 4 5 4 5 4 8 2 3 2 7 4 4 7 8 8 9 9 11 13
10 11 7 4 5 1 3 3 2 11 2 2 3 4 11 10 15 19 10 12 13 13 7 6 5 8 2 3 3 9 8 7 7 3 6 3 6 6 10 11 10 9 12 11
4 4 4 3 1 3 3 6 15 10 1 2 6 4 9 10 7 14 14 21 16 11 7 6 6 8 7 3 3 10 11 5 8 8 7 3 7 7 10 10 11 10 11 12
10 11 11 9 7 10 11 13 19 4 6 9 3 4 4 21 8 4 9 6 10 13 6 5 4 7 8 4 9 11 12 8 8 10 7 8 8 10 11 12 11 12 13 14
16 10 7 6 7 5 8 10 14 19 13 6 7 5 4 16 10 7 6 5 4 6 5 5 5 3 5 6 10 11 11 9 11 10 7 8 9 10 11 11 13 12 12 13
6 5 3 5 6 8 6 5 8 13 12 9 8 15 4 12 11 8 4 5 2 2 3 5 3 2 10 11 9 10 10 9 9 12 13 12 12 13 12 13 12 12 12 13
4 3 5 9 9 7 8 8 10 11 5 9 10 14 9 10 4 3 9 2 4 3 3 2 2 2 8 11 11 10 10 10 10 10 10 10 12 13 13 13 11 12 13 14
10 14 13 10 11 10 9 4 6 6 4 8 13 15 10 7 7 6 8 3 4 3 3 3 2 1 12 13 13 12 12 12 12 11 12 12 11 13 14 12 13 14 15 13
11 8 8 9 10 12 6 7 4 3 9 10 17 14 9 8 12 4 6 5 3 1 3 2 1 7 13 15 15 14 13 13 13 14 13 13 13 12 13 14 14 14 15 13
10 9 8 5 5 5 3 5 7 10 11 17 18 10 7 5 6 5 5 3 4 4 3 1 5 14 15 16 15 15 15 15 17 17 15 15 15 15 14 13 14 15 16 15
9 9 6 4 7 9 8 8 8 8 11 12 8 4 6 7 4 4 4 6 4 3 2 2 15 15 17 17 17 17 18 17 17 17 17 18 17 17 17 15 15 15 15 15
10 12 5 9 7 13 14 14 12 11 7 7 3 4 4 4 3 5 4 3 3 3 6 16 16 17 18 20 20 17 18 19 19 17 17 17 16 16 17 16 13 12 16 17
8 9 14 11 12 14 16 17 17 11 5 5 4 6 1 3 4 4 3 1 4 14 16 15 16 17 21 21 20 19 17 19 16 16 17 16 16 16 16 15 15 17 17 17
Wind_Direction
351 347 345 347 359 355 4 20 293 253 309 254 218 226 77 276 247 204 271 263 279 272 283 293 251 227 173 155 163 193 200 238 278 275 22 315 312 164 137 133 288 294 196 269
343 332 334 346 351 355 358 331 278 282 226 260 269 128 201 202 242 226 219 249 226 320 294 299 281 286 189 175 187 187 166 237 288 238 18 328 205 148 115 105 96 228 220 276
328 340 342 333 333 336 343 315 307 208 211 266 283 307 310 309 188 274 267 277 295 282 264 254 242 235 218 186 222 226 187 189 203 251 262 149 196 142 124 142 143 294 232 302
317 330 329 328 326 327 343 246 284 233 311 310 325 321 307 287 288 230 289 235 233 255 281 288 280 257 236 177 220 224 198 220 251 267 273 252 121 147 156 170 212 164 253 334
323 316 321 322 328 331 318 290 294 7 285 288 278 282 280 281 282 277 267 253 262 281 249 226 266 284 280 260 197 185 198 232 265 268 274 236 174 165 169 169 237 282 321 283
306 309 319 324 321 328 315 276 285 284 270 289 287 269 265 281 273 277 271 278 260 265 269 318 300 274 258 232 242 235 203 184 210 255 268 270 218 199 172 149 113 149 273 251
299 303 310 313 307 310 291 277 279 280 275 279 282 292 294 276 266 275 270 270 257 284 295 288 273 251 238 245 241 213 198 231 254 266 297 247 172 39 100 117 136 72 0 332
305 309 314 306 309 294 294 290 275 252 270 283 288 307 320 306 294 299 294 266 276 294 290 254 245 197 205 223 232 227 226 210 244 244 233 110 136 45 51 174 122 103 1 343
309 311 313 312 301 296 284 277 281 266 275 228 313 293 284 290 313 279 268 270 276 128 246 244 253 239 184 147 35 327 280 195 233 219 229 234 68 97 74 55 148 48 31 6
305 312 315 307 305 296 289 297 286 266 260 280 326 342 346 319 297 262 289 188 222 188 245 257 258 239 259 173 156 168 179 216 235 258 256 85 14 3 23 128 201 4 16 16
309 313 311 306 299 298 296 299 293 274 281 300 288 289 11 344 355 327 358 306 225 189 239 249 246 255 98 82 34 354 44 348 34 315 160 177 352 312 318 2 18 40 8 3
312 314 312 304 306 299 305 313 288 271 261 234 271 79 11 356 310 304 293 287 288 346 303 328 20 72 50 168 101 7 76 44 52 28 78 98 55 75 70 33 22 16 356 348
316 314 304 305 305 296 300 288 294 283 252 204 132 354 341 332 318 277 265 294 36 85 63 17 62 74 350 38 42 127 76 10 81 200 82 44 67 65 43 28 17 1 353 348
316 306 298 309 295 286 297 314 337 250 280 220 72 25 35 357 344 293 259 259 286 115 70 60 44 65 21 47 103 67 348 326 355 75 70 1 72 31 10 359 351 336 338 334
318 295 304 288 268 258 310 64 43 21 339 6 142 75 32 25 20 32 135 152 127 75 61 44 46 52 62 77 81 42 4 354 359 32 360 329 26 344 350 353 343 345 344 341
300 298 292 274 202 307 6 239 284 360 10 208 132 94 34 48 32 46 65 76 72 77 75 75 67 22 33 78 73 17 16 23 19 332 337 345 356 338 348 346 347 349 333 340
309 250 207 152 202 234 106 60 331 340 114 41 137 91 15 25 32 45 39 58 59 69 76 61 60 26 61 45 64 12 11 16 25 10 352 327 336 332 337 342 344 344 346 340
177 136 104 88 73 100 74 41 22 54 73 57 28 355 48 10 347 48 36 65 50 42 79 68 61 41 59 64 22 13 8 6 355 358 354 345 338 345 345 343 345 342 336 341
156 90 95 104 54 56 38 20 31 54 69 77 46 355 352 348 352 17 41 51 68 56 60 33 69 50 45 355 2 8 2 359 343 350 349 348 338 337 336 335 331 332 338 336
108 101 82 48 33 47 31 22 29 31 38 51 39 12 353 346 335 20 35 44 59 66 47 77 78 82 50 24 15 0 0 358 351 353 347 340 332 329 330 328 329 329 328 328
141 84 76 61 53 46 45 44 35 13 43 23 357 1 338 349 340 347 19 52 22 69 13 65 74 61 9 6 1 0 4 355 349 338 328 323 322 324 322 321 323 321 319 319
104 107 90 44 31 38 60 20 21 37 29 7 345 338 340 323 343 351 5 63 43 67 6 59 67 25 7 357 349 348 346 342 336 334 328 323 318 318 319 314 311 313 312 316
80 58 55 23 13 40 44 3 345 357 360 345 340 333 342 344 7 33 24 54 56 79 43 66 84 23 356 347 342 336 333 333 327 323 323 316 312 303 305 303 306 302 304 311
57 48 37 54 16 32 6 340 333 313 314 329 330 332 357 355 16 5 66 356 30 44 49 52 15 356 347 341 337 332 330 326 323 330 325 319 317 316 312 304 299 300 302 309
64 48 48 48 32 24 355 344 320 337 327 330 336 351 28 359 49 28 28 28 43 38 350 321 335 334 338 336 330 324 320 323 325 325 323 323 325 322 318 318 311 306 306 308
64 47 54 22 21 14 11 357 348 343 349 334 329 349 49 19 55 42 10 58 29 326 335 321 325 329 329 327 326 329 332 326 319 320 318 315 313 314 318 319 316 316 313 309
58 52 45 49 33 15 10 7 356 5 355 17 27 48 280 304 42 31 25 345 288 316 317 322 325 325 324 325 327 327 322 318 318 316 316 317 319 319 321 323 324 316 310 310
Height
1541 1540 1538 1535 1531 1529 1526 1525 1525 1522 1522 1524 1517 1514 1512 1515 1513 1514 1514 1513 1513 1513 1510 1510 1511 1513 1515 1518 1520 1527 1526 1532 1534 1525 1525 1522 1524 1526 1534 1555 1551 1542 1556 1547
1540 1539 1537 1534 1532 1529 1527 1526 1523 1520 1520 1519 1511 1509 1512 1512 1512 1512 1511 1512 1512 1510 1512 1516 1510 1510 1509 1514 1517 1522 1524 1537 1539 1520 1530 1527 1528 1532 1533 1538 1548 1557 1546 1542
1538 1537 1535 1533 1531 1530 1529 1527 1522 1518 1517 1515 1515 1514 1512 1510 1510 1510 1510 1510 1510 1511 1511 1510 1511 1510 1509 1512 1514 1515 1518 1527 1532 1532 1530 1522 1523 1530 1535 1539 1557 1556 1553 1545
1536 1536 1533 1532 1530 1529 1529 1527 1521 1519 1519 1515 1514 1515 1514 1511 1511 1510 1511 1507 1509 1510 1511 1509 1506 1504 1506 1507 1511 1511 1515 1526 1521 1514 1511 1515 1521 1532 1539 1550 1555 1553 1553 1548
1535 1533 1532 1531 1528 1527 1528 1528 1525 1522 1520 1518 1515 1512 1510 1506 1506 1508 1507 1508 1508 1507 1511 1510 1509 1506 1505 1505 1503 1507 1510 1523 1512 1515 1507 1509 1518 1526 1535 1545 1545 1549 1549 1547
1533 1532 1530 1528 1527 1526 1526 1526 1524 1521 1518 1515 1512 1508 1505 1503 1503 1504 1503 1503 1501 1502 1502 1502 1501 1500 1501 1502 1505 1505 1508 1516 1516 1513 1504 1502 1512 1520 1529 1540 1540 1546 1551 1544
1531 1529 1527 1526 1525 1524 1524 1523 1522 1521 1513 1511 1507 1504 1501 1499 1500 1499 1499 1499 1500 1499 1498 1498 1497 1496 1496 1498 1499 1500 1508 1509 1507 1508 1508 1507 1528 1521 1521 1532 1540 1540 1541 1539
1529 1526 1524 1523 1522 1522 1521 1519 1519 1516 1508 1507 1504 1502 1499 1499 1497 1494 1494 1494 1495 1495 1497 1498 1494 1494 1495 1493 1494 1496 1498 1504 1509 1507 1505 1522 1526 1528 1529 1531 1542 1539 1540 1538
1525 1523 1521 1519 1519 1518 1515 1515 1514 1513 1508 1502 1502 1500 1498 1496 1494 1493 1491 1494 1493 1494 1494 1492 1488 1484 1484 1489 1496 1495 1497 1499 1503 1501 1502 1499 1526 1531 1532 1532 1539 1539 1538 1538
1522 1520 1518 1517 1515 1513 1512 1510 1510 1508 1506 1501 1500 1499 1498 1499 1497 1495 1491 1493 1493 1494 1492 1489 1485 1482 1482 1486 1490 1496 1498 1503 1501 1499 1496 1529 1535 1533 1534 1539 1546 1539 1538 1538
1518 1517 1517 1515 1512 1510 1509 1507 1505 1505 1502 1500 1498 1498 1498 1498 1498 1497 1495 1495 1490 1491 1494 1489 1481 1482 1487 1502 1517 1517 1515 1523 1515 1508 1506 1522 1537 1534 1535 1542 1539 1539 1538 1538
1515 1514 1512 1510 1509 1507 1505 1504 1503 1502 1502 1500 1498 1497 1499 1499 1499 1499 1495 1493 1492 1489 1489 1486 1485 1485 1491 1500 1522 1524 1526 1535 1534 1539 1539 1541 1540 1540 1541 1541 1540 1539 1539 1537
1513 1511 1510 1508 1506 1503 1503 1502 1501 1500 1499 1499 1500 1499 1499 1497 1496 1496 1497 1491 1490 1490 1490 1491 1493 1503 1505 1508 1525 1529 1533 1534 1534 1537 1542 1542 1541 1542 1541 1541 1540 1539 1538 1536
1509 1508 1505 1504 1502 1501 1502 1501 1500 1499 1498 1495 1503 1500 1499 1497 1494 1493 1492 1492 1491 1491 1492 1496 1502 1510 1514 1526 1532 1534 1542 1538 1540 1542 1543 1543 1543 1542 1542 1541 1540 1538 1537 1535
1504 1503 1502 1501 1501 1500 1501 1500 1499 1497 1500 1496 1499 1500 1500 1498 1494 1492 1491 1491 1491 1493 1498 1505 1515 1519 1523 1529 1535 1547 1548 1548 1548 1547 1546 1546 1545 1543 1542 1540 1539 1537 1535 1533
1501 1500 1500 1500 1499 1499 1500 1500 1499 1497 1495 1496 1497 1503 1502 1500 1499 1496 1494 1494 1495 1497 1506 1516 1523 1525 1525 1534 1546 1553 1551 1550 1549 1548 1546 1545 1544 1543 1541 1540 1538 1536 1535 1532
1499 1499 1499 1499 1499 1499 1500 1505 1501 1496 1495 1496 1499 1502 1506 1503 1502 1502 1502 1501 1502 1505 1514 1524 1528 1529 1530 1541 1552 1554 1552 1551 1549 1548 1546 1545 1544 1543 1541 1539 1538 1536 1534 1531
1498 1499 1500 1501 1501 1500 1502 1502 1498 1495 1496 1499 1507 1510 1510 1509 1507 1506 1506 1507 1509 1515 1522 1529 1532 1536 1541 1554 1557 1555 1553 1551 1549 1548 1547 1546 1544 1543 1541 1539 1537 1535 1533 1530
1498 1500 1501 1502 1502 1502 1504 1504 1501 1499 1504 1512 1523 1526 1520 1516 1513 1510 1510 1511 1518 1524 1531 1534 1537 1547 1557 1560 1557 1556 1554 1552 1550 1548 1546 1545 1544 1542 1540 1538 1536 1534 1532 1530
1500 1502 1503 1505 1506 1505 1507 1505 1505 1508 1516 1525 1533 1533 1528 1526 1520 1515 1515 1517 1522 1532 1539 1539 1546 1559 1561 1560 1558 1556 1554 1552 1550 1548 1546 1544 1543 1541 1539 1537 1534 1532 1531 1529
1501 1502 1506 1509 1507 1508 1510 1517 1523 1529 1535 1540 1540 1539 1535 1531 1528 1523 1524 1525 1527 1536 1542 1542 1551 1562 1562 1561 1559 1557 1554 1552 1550 1549 1547 1545 1542 1539 1537 1535 1533 1531 1529 1527
1500 1502 1507 1510 1514 1518 1525 1538 1542 1544 1550 1548 1545 1542 1539 1535 1533 1530 1531 1532 1535 1548 1545 1548 1559 1565 1563 1561 1559 1557 1555 1552 1550 1548 1545 1543 1541 1538 1535 1533 1531 1529 1527 1525
1503 1506 1515 1525 1535 1542 1555 1562 1559 1557 1555 1553 1550 1546 1542 1539 1538 1536 1537 1541 1548 1546 1552 1562 1567 1565 1563 1560 1558 1555 1553 1551 1548 1546 1543 1541 1538 1536 1533 1530 1529 1527 1524 1522
1510 1524 1541 1548 1563 1566 1567 1566 1564 1562 1558 1555 1552 1548 1546 1544 1543 1543 1552 1551 1550 1562 1569 1569 1566 1564 1562 1560 1557 1554 1551 1549 1546 1543 1541 1538 1535 1532 1530 1528 1526 1523 1521 1519
1527 1541 1561 1569 1570 1570 1568 1566 1563 1561 1558 1556 1552 1551 1550 1550 1552 1553 1556 1565 1571 1568 1573 1569 1566 1564 1561 1558 1556 1552 1549 1546 1543 1541 1538 1535 1532 1530 1527 1525 1523 1521 1519 1517
1546 1563 1571 1573 1571 1570 1568 1565 1563 1560 1557 1555 1555 1555 1558 1563 1562 1569 1573 1579 1578 1574 1571 1568 1565 1562 1560 1557 1553 1550 1546 1543 1540 1538 1535 1532 1530 1527 1524 1522 1520 1518 1516 1514
1568 1578 1577 1577 1576 1574 1570 1566 1562 1559 1558 1558 1558 1569 1573 1568 1577 1579 1577 1581 1576 1572 1569 1567 1564 1561 1557 1554 1550 1547 1544 1541 1538 1535 1532 1529 1527 1524 1522 1519 1517 1515 1513 1510